Year,Month,Day,Hour,Minute,Value (Times are PST for temperature in C)
2015,04,20,00,00,11.90
2015,04,20,00,01,11.90
2015,04,20,00,02,11.90
2015,04,20,00,03,11.90
2015,04,20,00,04,11.90
2015,04,20,00,05,11.80
2015,04,20,00,06,11.80
2015,04,20,00,07,11.80
2015,04,20,00,08,11.80
2015,04,20,00,09,11.70
2015,04,20,00,10,11.70
2015,04,20,00,11,11.70
2015,04,20,00,12,11.60
2015,04,20,00,13,11.60
2015,04,20,00,14,11.60
2015,04,20,00,15,11.60
2015,04,20,00,16,11.60
2015,04,20,00,17,11.50
2015,04,20,00,18,11.50
2015,04,20,00,19,11.50
2015,04,20,00,20,11.50
2015,04,20,00,21,11.40
2015,04,20,00,22,11.40
2015,04,20,00,23,11.40
2015,04,20,00,24,11.40
2015,04,20,00,25,11.40
2015,04,20,00,26,11.40
2015,04,20,00,27,11.40
2015,04,20,00,28,11.40
2015,04,20,00,29,11.40
2015,04,20,00,30,11.40
2015,04,20,00,31,11.40
2015,04,20,00,32,11.40
2015,04,20,00,33,11.40
2015,04,20,00,34,11.30
2015,04,20,00,35,11.30
2015,04,20,00,36,11.30
2015,04,20,00,37,11.30
2015,04,20,00,38,11.30
2015,04,20,00,39,11.30
2015,04,20,00,40,11.30
2015,04,20,00,41,11.30
2015,04,20,00,42,11.30
2015,04,20,00,43,11.30
2015,04,20,00,44,11.20
2015,04,20,00,45,11.20
2015,04,20,00,46,11.30
2015,04,20,00,47,11.30
2015,04,20,00,48,11.30
2015,04,20,00,49,11.30
2015,04,20,00,50,11.30
2015,04,20,00,51,11.30
2015,04,20,00,52,11.30
2015,04,20,00,53,11.30
2015,04,20,00,54,11.30
2015,04,20,00,55,11.30
2015,04,20,00,56,11.30
2015,04,20,00,57,11.30
2015,04,20,00,58,11.30
2015,04,20,00,59,11.30
2015,04,20,01,00,11.30
2015,04,20,01,01,11.30
2015,04,20,01,02,11.30
2015,04,20,01,03,11.30
2015,04,20,01,04,11.30
2015,04,20,01,05,11.30
2015,04,20,01,06,11.30
2015,04,20,01,07,11.30
2015,04,20,01,08,11.30
2015,04,20,01,09,11.30
2015,04,20,01,10,11.30
2015,04,20,01,11,11.30
2015,04,20,01,12,11.30
2015,04,20,01,13,11.30
2015,04,20,01,14,11.30
2015,04,20,01,15,11.30
2015,04,20,01,16,11.30
2015,04,20,01,17,11.20
2015,04,20,01,18,11.20
2015,04,20,01,19,11.20
2015,04,20,01,20,11.20
2015,04,20,01,21,11.20
2015,04,20,01,22,11.20
2015,04,20,01,23,11.20
2015,04,20,01,24,11.20
2015,04,20,01,25,11.10
2015,04,20,01,26,11.10
2015,04,20,01,27,11.20
2015,04,20,01,28,11.10
2015,04,20,01,29,11.10
2015,04,20,01,30,11.10
2015,04,20,01,31,11.10
2015,04,20,01,32,11.10
2015,04,20,01,33,11.00
2015,04,20,01,34,11.00
2015,04,20,01,35,11.00
2015,04,20,01,36,11.00
2015,04,20,01,37,11.00
2015,04,20,01,38,10.90
2015,04,20,01,39,10.90
2015,04,20,01,40,10.90
2015,04,20,01,41,10.90
2015,04,20,01,42,10.90
2015,04,20,01,43,10.80
2015,04,20,01,44,10.80
2015,04,20,01,45,10.80
2015,04,20,01,46,10.80
2015,04,20,01,47,10.80
2015,04,20,01,48,10.80
2015,04,20,01,49,10.80
2015,04,20,01,50,10.80
2015,04,20,01,51,10.70
2015,04,20,01,52,10.70
2015,04,20,01,53,10.70
2015,04,20,01,54,10.70
2015,04,20,01,55,10.70
2015,04,20,01,56,10.70
2015,04,20,01,57,10.70
2015,04,20,01,58,10.70
2015,04,20,01,59,10.70
2015,04,20,02,00,10.70
2015,04,20,02,01,10.70
2015,04,20,02,02,10.70
2015,04,20,02,03,10.70
2015,04,20,02,04,10.70
2015,04,20,02,05,10.70
2015,04,20,02,06,10.70
2015,04,20,02,07,10.60
2015,04,20,02,08,10.60
2015,04,20,02,09,10.60
2015,04,20,02,10,10.60
2015,04,20,02,11,10.60
2015,04,20,02,12,10.60
2015,04,20,02,13,10.60
2015,04,20,02,14,10.60
2015,04,20,02,15,10.60
2015,04,20,02,16,10.60
2015,04,20,02,17,10.60
2015,04,20,02,18,10.60
2015,04,20,02,19,10.60
2015,04,20,02,20,10.60
2015,04,20,02,21,10.60
2015,04,20,02,22,10.60
2015,04,20,02,23,10.70
2015,04,20,02,24,10.70
2015,04,20,02,25,10.70
2015,04,20,02,26,10.60
2015,04,20,02,27,10.60
2015,04,20,02,28,10.60
2015,04,20,02,29,10.60
2015,04,20,02,30,10.60
2015,04,20,02,31,10.60
2015,04,20,02,32,10.60
2015,04,20,02,33,10.50
2015,04,20,02,34,10.50
2015,04,20,02,35,10.50
2015,04,20,02,36,10.40
2015,04,20,02,37,10.40
2015,04,20,02,38,10.40
2015,04,20,02,39,10.30
2015,04,20,02,40,10.30
2015,04,20,02,41,10.30
2015,04,20,02,42,10.30
2015,04,20,02,43,10.30
2015,04,20,02,44,10.30
2015,04,20,02,45,10.30
2015,04,20,02,46,10.20
2015,04,20,02,47,10.20
2015,04,20,02,48,10.20
2015,04,20,02,49,10.20
2015,04,20,02,50,10.20
2015,04,20,02,51,10.20
2015,04,20,02,52,10.20
2015,04,20,02,53,10.20
2015,04,20,02,54,10.20
2015,04,20,02,55,10.20
2015,04,20,02,56,10.20
2015,04,20,02,57,10.20
2015,04,20,02,58,10.20
2015,04,20,02,59,10.20
2015,04,20,03,00,10.20
2015,04,20,03,01,10.10
2015,04,20,03,02,10.10
2015,04,20,03,03,10.10
2015,04,20,03,04,10.10
2015,04,20,03,05,10.10
2015,04,20,03,06,10.10
2015,04,20,03,07,10.10
2015,04,20,03,08,10.00
2015,04,20,03,09,10.00
2015,04,20,03,10,10.00
2015,04,20,03,11,10.00
2015,04,20,03,12,10.00
2015,04,20,03,13,10.00
2015,04,20,03,14,10.00
2015,04,20,03,15,10.00
2015,04,20,03,16,10.00
2015,04,20,03,17,10.00
2015,04,20,03,18,9.90
2015,04,20,03,19,9.90
2015,04,20,03,20,9.90
2015,04,20,03,21,9.90
2015,04,20,03,22,9.90
2015,04,20,03,23,9.90
2015,04,20,03,24,9.80
2015,04,20,03,25,9.80
2015,04,20,03,26,9.80
2015,04,20,03,27,9.80
2015,04,20,03,28,9.80
2015,04,20,03,29,9.80
2015,04,20,03,30,9.80
2015,04,20,03,31,9.80
2015,04,20,03,32,9.80
2015,04,20,03,33,9.80
2015,04,20,03,34,9.80
2015,04,20,03,35,9.80
2015,04,20,03,36,9.80
2015,04,20,03,37,9.80
2015,04,20,03,38,9.80
2015,04,20,03,39,9.80
2015,04,20,03,40,9.80
2015,04,20,03,41,9.80
2015,04,20,03,42,9.80
2015,04,20,03,43,9.80
2015,04,20,03,44,9.80
2015,04,20,03,45,9.80
2015,04,20,03,46,9.80
2015,04,20,03,47,9.80
2015,04,20,03,48,9.80
2015,04,20,03,49,9.80
2015,04,20,03,50,9.80
2015,04,20,03,51,9.80
2015,04,20,03,52,9.80
2015,04,20,03,53,9.80
2015,04,20,03,54,9.80
2015,04,20,03,55,9.80
2015,04,20,03,56,9.80
2015,04,20,03,57,9.80
2015,04,20,03,58,9.80
2015,04,20,03,59,9.80
2015,04,20,04,00,9.80
2015,04,20,04,01,9.80
2015,04,20,04,02,9.70
2015,04,20,04,03,9.70
2015,04,20,04,04,9.70
2015,04,20,04,05,9.70
2015,04,20,04,06,9.70
2015,04,20,04,07,9.60
2015,04,20,04,08,9.60
2015,04,20,04,09,9.60
2015,04,20,04,10,9.60
2015,04,20,04,11,9.50
2015,04,20,04,12,9.50
2015,04,20,04,13,9.50
2015,04,20,04,14,9.50
2015,04,20,04,15,9.50
2015,04,20,04,16,9.50
2015,04,20,04,17,9.50
2015,04,20,04,18,9.40
2015,04,20,04,19,9.40
2015,04,20,04,20,9.40
2015,04,20,04,21,9.40
2015,04,20,04,22,9.30
2015,04,20,04,23,9.40
2015,04,20,04,24,9.30
2015,04,20,04,25,9.30
2015,04,20,04,26,9.30
2015,04,20,04,27,9.30
2015,04,20,04,28,9.30
2015,04,20,04,29,9.30
2015,04,20,04,30,9.30
2015,04,20,04,31,9.30
2015,04,20,04,32,9.30
2015,04,20,04,33,9.30
2015,04,20,04,34,9.30
2015,04,20,04,35,9.30
2015,04,20,04,36,9.20
2015,04,20,04,37,9.20
2015,04,20,04,38,9.20
2015,04,20,04,39,9.20
2015,04,20,04,40,9.10
2015,04,20,04,41,9.10
2015,04,20,04,42,9.10
2015,04,20,04,43,9.10
2015,04,20,04,44,9.10
2015,04,20,04,45,9.10
2015,04,20,04,46,9.10
2015,04,20,04,47,9.10
2015,04,20,04,48,9.10
2015,04,20,04,49,9.00
2015,04,20,04,50,9.00
2015,04,20,04,51,9.00
2015,04,20,04,52,8.90
2015,04,20,04,53,8.90
2015,04,20,04,54,8.90
2015,04,20,04,55,8.90
2015,04,20,04,56,8.90
2015,04,20,04,57,8.90
2015,04,20,04,58,8.80
2015,04,20,04,59,8.80
2015,04,20,05,00,8.80
2015,04,20,05,01,8.80
2015,04,20,05,02,8.80
2015,04,20,05,03,8.80
2015,04,20,05,04,8.70
2015,04,20,05,05,8.80
2015,04,20,05,06,8.80
2015,04,20,05,07,8.80
2015,04,20,05,08,8.80
2015,04,20,05,09,8.80
2015,04,20,05,10,8.80
2015,04,20,05,11,8.90
2015,04,20,05,12,8.90
2015,04,20,05,13,8.90
2015,04,20,05,14,8.90
2015,04,20,05,15,8.90
2015,04,20,05,16,8.90
2015,04,20,05,17,8.90
2015,04,20,05,18,8.90
2015,04,20,05,19,8.90
2015,04,20,05,20,8.90
2015,04,20,05,21,8.90
2015,04,20,05,22,8.90
2015,04,20,05,23,9.00
2015,04,20,05,24,9.00
2015,04,20,05,25,9.00
2015,04,20,05,26,9.00
2015,04,20,05,27,9.00
2015,04,20,05,28,8.90
2015,04,20,05,29,8.90
2015,04,20,05,30,8.90
2015,04,20,05,31,8.90
2015,04,20,05,32,8.90
2015,04,20,05,33,8.90
2015,04,20,05,34,8.90
2015,04,20,05,35,8.90
2015,04,20,05,36,8.90
2015,04,20,05,37,8.90
2015,04,20,05,38,8.90
2015,04,20,05,39,8.90
2015,04,20,05,40,8.80
2015,04,20,05,41,8.80
2015,04,20,05,42,8.80
2015,04,20,05,43,8.80
2015,04,20,05,44,8.80
2015,04,20,05,45,8.80
2015,04,20,05,46,8.80
2015,04,20,05,47,8.80
2015,04,20,05,48,8.80
2015,04,20,05,49,8.80
2015,04,20,05,50,8.90
2015,04,20,05,51,8.90
2015,04,20,05,52,8.90
2015,04,20,05,53,8.90
2015,04,20,05,54,8.90
2015,04,20,05,55,8.90
2015,04,20,05,56,8.90
2015,04,20,05,57,8.90
2015,04,20,05,58,8.90
2015,04,20,05,59,8.80
2015,04,20,06,00,8.80
2015,04,20,06,01,8.80
2015,04,20,06,02,8.80
2015,04,20,06,03,8.80
2015,04,20,06,04,8.80
2015,04,20,06,05,8.70
2015,04,20,06,06,8.70
2015,04,20,06,07,8.70
2015,04,20,06,08,8.80
2015,04,20,06,09,8.80
2015,04,20,06,10,8.80
2015,04,20,06,11,8.80
2015,04,20,06,12,8.70
2015,04,20,06,13,8.70
2015,04,20,06,14,8.70
2015,04,20,06,15,8.70
2015,04,20,06,16,8.70
2015,04,20,06,17,8.70
2015,04,20,06,18,8.70
2015,04,20,06,19,8.70
2015,04,20,06,20,8.70
2015,04,20,06,21,8.70
2015,04,20,06,22,8.70
2015,04,20,06,23,8.70
2015,04,20,06,24,8.70
2015,04,20,06,25,8.70
2015,04,20,06,26,8.70
2015,04,20,06,27,8.70
2015,04,20,06,28,8.70
2015,04,20,06,29,8.70
2015,04,20,06,30,8.70
2015,04,20,06,31,8.70
2015,04,20,06,32,8.60
2015,04,20,06,33,8.60
2015,04,20,06,34,8.60
2015,04,20,06,35,8.60
2015,04,20,06,36,8.60
2015,04,20,06,37,8.50
2015,04,20,06,38,8.50
2015,04,20,06,39,8.50
2015,04,20,06,40,8.50
2015,04,20,06,41,8.50
2015,04,20,06,42,8.50
2015,04,20,06,43,8.50
2015,04,20,06,44,8.50
2015,04,20,06,45,8.50
2015,04,20,06,46,8.50
2015,04,20,06,47,8.60
2015,04,20,06,48,8.60
2015,04,20,06,49,8.60
2015,04,20,06,50,8.60
2015,04,20,06,51,8.60
2015,04,20,06,52,8.60
2015,04,20,06,53,8.60
2015,04,20,06,54,8.70
2015,04,20,06,55,8.70
2015,04,20,06,56,8.80
2015,04,20,06,57,8.80
2015,04,20,06,58,8.80
2015,04,20,06,59,8.90
2015,04,20,07,00,8.90
2015,04,20,07,01,9.00
2015,04,20,07,02,9.00
2015,04,20,07,03,9.10
2015,04,20,07,04,9.10
2015,04,20,07,05,9.20
2015,04,20,07,06,9.20
2015,04,20,07,07,9.20
2015,04,20,07,08,9.20
2015,04,20,07,09,9.20
2015,04,20,07,10,9.20
2015,04,20,07,11,9.30
2015,04,20,07,12,9.30
2015,04,20,07,13,9.40
2015,04,20,07,14,9.40
2015,04,20,07,15,9.40
2015,04,20,07,16,9.40
2015,04,20,07,17,9.40
2015,04,20,07,18,9.50
2015,04,20,07,19,9.50
2015,04,20,07,20,9.50
2015,04,20,07,21,9.60
2015,04,20,07,22,9.60
2015,04,20,07,23,9.70
2015,04,20,07,24,9.70
2015,04,20,07,25,9.70
2015,04,20,07,26,9.80
2015,04,20,07,27,9.80
2015,04,20,07,28,9.80
2015,04,20,07,29,9.80
2015,04,20,07,30,9.80
2015,04,20,07,31,9.90
2015,04,20,07,32,9.90
2015,04,20,07,33,9.90
2015,04,20,07,34,9.90
2015,04,20,07,35,10.00
2015,04,20,07,36,10.00
2015,04,20,07,37,10.00
2015,04,20,07,38,10.10
2015,04,20,07,39,10.10
2015,04,20,07,40,10.10
2015,04,20,07,41,10.10
2015,04,20,07,42,10.20
2015,04,20,07,43,10.20
2015,04,20,07,44,10.20
2015,04,20,07,45,10.30
2015,04,20,07,46,10.30
2015,04,20,07,47,10.30
2015,04,20,07,48,10.30
2015,04,20,07,49,10.40
2015,04,20,07,50,10.40
2015,04,20,07,51,10.40
2015,04,20,07,52,10.50
2015,04,20,07,53,10.50
2015,04,20,07,54,10.50
2015,04,20,07,55,10.60
2015,04,20,07,56,10.60
2015,04,20,07,57,10.60
2015,04,20,07,58,10.60
2015,04,20,07,59,10.60
2015,04,20,08,00,10.70
2015,04,20,08,01,10.70
2015,04,20,08,02,10.70
2015,04,20,08,03,10.80
2015,04,20,08,04,10.80
2015,04,20,08,05,10.80
2015,04,20,08,06,10.90
2015,04,20,08,07,10.90
2015,04,20,08,08,10.90
2015,04,20,08,09,10.90
2015,04,20,08,10,11.00
2015,04,20,08,11,11.00
2015,04,20,08,12,11.10
2015,04,20,08,13,11.10
2015,04,20,08,14,11.20
2015,04,20,08,15,11.20
2015,04,20,08,16,11.20
2015,04,20,08,17,11.30
2015,04,20,08,18,11.30
2015,04,20,08,19,11.30
2015,04,20,08,20,11.40
2015,04,20,08,21,11.40
2015,04,20,08,22,11.40
2015,04,20,08,23,11.40
2015,04,20,08,24,11.40
2015,04,20,08,25,11.40
2015,04,20,08,26,11.50
2015,04,20,08,27,11.50
2015,04,20,08,28,11.60
2015,04,20,08,29,11.70
2015,04,20,08,30,11.70
2015,04,20,08,31,11.80
2015,04,20,08,32,11.80
2015,04,20,08,33,11.90
2015,04,20,08,34,11.90
2015,04,20,08,35,12.00
2015,04,20,08,36,12.00
2015,04,20,08,37,12.00
2015,04,20,08,38,12.10
2015,04,20,08,39,12.20
2015,04,20,08,40,12.20
2015,04,20,08,41,12.20
2015,04,20,08,42,12.30
2015,04,20,08,43,12.30
2015,04,20,08,44,12.40
2015,04,20,08,45,12.40
2015,04,20,08,46,12.40
2015,04,20,08,47,12.50
2015,04,20,08,48,12.50
2015,04,20,08,49,12.50
2015,04,20,08,50,12.50
2015,04,20,08,51,12.50
2015,04,20,08,52,12.50
2015,04,20,08,53,12.60
2015,04,20,08,54,12.60
2015,04,20,08,55,12.60
2015,04,20,08,56,12.60
2015,04,20,08,57,12.60
2015,04,20,08,58,12.60
2015,04,20,08,59,12.60
2015,04,20,09,00,12.60
2015,04,20,09,01,12.60
2015,04,20,09,02,12.60
2015,04,20,09,03,12.70
2015,04,20,09,04,12.70
2015,04,20,09,05,12.70
2015,04,20,09,06,12.60
2015,04,20,09,07,12.50
2015,04,20,09,08,12.50
2015,04,20,09,09,12.40
2015,04,20,09,10,12.30
2015,04,20,09,11,12.30
2015,04,20,09,12,12.30
2015,04,20,09,13,12.30
2015,04,20,09,14,12.30
2015,04,20,09,15,12.30
2015,04,20,09,16,12.30
2015,04,20,09,17,12.30
2015,04,20,09,18,12.20
2015,04,20,09,19,12.30
2015,04,20,09,20,12.30
2015,04,20,09,21,12.30
2015,04,20,09,22,12.30
2015,04,20,09,23,12.40
2015,04,20,09,24,12.40
2015,04,20,09,25,12.30
2015,04,20,09,26,12.30
2015,04,20,09,27,12.30
2015,04,20,09,28,12.30
2015,04,20,09,29,12.30
2015,04,20,09,30,12.40
2015,04,20,09,31,12.40
2015,04,20,09,32,12.40
2015,04,20,09,33,12.30
2015,04,20,09,34,12.30
2015,04,20,09,35,12.20
2015,04,20,09,36,12.20
2015,04,20,09,37,12.20
2015,04,20,09,38,12.30
2015,04,20,09,39,12.30
2015,04,20,09,40,12.40
2015,04,20,09,41,12.40
2015,04,20,09,42,12.40
2015,04,20,09,43,12.40
2015,04,20,09,44,12.50
2015,04,20,09,45,12.50
2015,04,20,09,46,12.60
2015,04,20,09,47,12.60
2015,04,20,09,48,12.60
2015,04,20,09,49,12.50
2015,04,20,09,50,12.50
2015,04,20,09,51,12.40
2015,04,20,09,52,12.40
2015,04,20,09,53,12.40
2015,04,20,09,54,12.40
2015,04,20,09,55,12.40
2015,04,20,09,56,12.40
2015,04,20,09,57,12.40
2015,04,20,09,58,12.40
2015,04,20,09,59,12.40
2015,04,20,10,00,12.50
2015,04,20,10,01,12.60
2015,04,20,10,02,12.60
2015,04,20,10,03,12.60
2015,04,20,10,04,12.60
2015,04,20,10,05,12.60
2015,04,20,10,06,12.60
2015,04,20,10,07,12.60
2015,04,20,10,08,12.60
2015,04,20,10,09,12.70
2015,04,20,10,10,12.80
2015,04,20,10,11,12.80
2015,04,20,10,12,12.90
2015,04,20,10,13,13.00
2015,04,20,10,14,13.10
2015,04,20,10,15,13.20
2015,04,20,10,16,13.30
2015,04,20,10,17,13.30
2015,04,20,10,18,13.30
2015,04,20,10,19,13.30
2015,04,20,10,20,13.30
2015,04,20,10,21,13.40
2015,04,20,10,22,13.50
2015,04,20,10,23,13.50
2015,04,20,10,24,13.60
2015,04,20,10,25,13.60
2015,04,20,10,26,13.50
2015,04,20,10,27,13.40
2015,04,20,10,28,13.30
2015,04,20,10,29,13.30
2015,04,20,10,30,13.30
2015,04,20,10,31,13.30
2015,04,20,10,32,13.30
2015,04,20,10,33,13.40
2015,04,20,10,34,13.40
2015,04,20,10,35,13.40
2015,04,20,10,36,13.40
2015,04,20,10,37,13.50
2015,04,20,10,38,13.50
2015,04,20,10,39,13.50
2015,04,20,10,40,13.60
2015,04,20,10,41,13.50
2015,04,20,10,42,13.60
2015,04,20,10,43,13.60
2015,04,20,10,44,13.70
2015,04,20,10,45,13.80
2015,04,20,10,46,13.80
2015,04,20,10,47,13.80
2015,04,20,10,48,13.90
2015,04,20,10,49,13.90
2015,04,20,10,50,13.90
2015,04,20,10,51,14.00
2015,04,20,10,52,14.00
2015,04,20,10,53,14.10
2015,04,20,10,54,14.20
2015,04,20,10,55,14.30
2015,04,20,10,56,14.40
2015,04,20,10,57,14.50
2015,04,20,10,58,14.60
2015,04,20,10,59,14.60
2015,04,20,11,00,14.60
2015,04,20,11,01,14.60
2015,04,20,11,02,14.60
2015,04,20,11,03,14.70
2015,04,20,11,04,14.70
2015,04,20,11,05,14.70
2015,04,20,11,06,14.70
2015,04,20,11,07,14.80
2015,04,20,11,08,14.80
2015,04,20,11,09,14.90
2015,04,20,11,10,14.90
2015,04,20,11,11,14.90
2015,04,20,11,12,14.90
2015,04,20,11,13,14.90
2015,04,20,11,14,15.00
2015,04,20,11,15,15.00
2015,04,20,11,16,15.00
2015,04,20,11,17,15.10
2015,04,20,11,18,15.10
2015,04,20,11,19,15.10
2015,04,20,11,20,15.20
2015,04,20,11,21,15.30
2015,04,20,11,22,15.30
2015,04,20,11,23,15.40
2015,04,20,11,24,15.40
2015,04,20,11,25,15.50
2015,04,20,11,26,15.50
2015,04,20,11,27,15.60
2015,04,20,11,28,15.60
2015,04,20,11,29,15.60
2015,04,20,11,30,15.60
2015,04,20,11,31,15.60
2015,04,20,11,32,15.50
2015,04,20,11,33,15.50
2015,04,20,11,34,15.40
2015,04,20,11,35,15.40
2015,04,20,11,36,15.40
2015,04,20,11,37,15.40
2015,04,20,11,38,15.40
2015,04,20,11,39,15.40
2015,04,20,11,40,15.50
2015,04,20,11,41,15.60
2015,04,20,11,42,15.70
2015,04,20,11,43,15.80
2015,04,20,11,44,15.90
2015,04,20,11,45,15.90
2015,04,20,11,46,16.00
2015,04,20,11,47,15.90
2015,04,20,11,48,16.00
2015,04,20,11,49,16.00
2015,04,20,11,50,16.00
2015,04,20,11,51,16.10
2015,04,20,11,52,16.10
2015,04,20,11,53,16.10
2015,04,20,11,54,16.10
2015,04,20,11,55,16.20
2015,04,20,11,56,16.20
2015,04,20,11,57,16.20
2015,04,20,11,58,16.30
2015,04,20,11,59,16.30
2015,04,20,12,00,16.30
2015,04,20,12,01,16.30
2015,04,20,12,02,16.20
2015,04,20,12,03,16.20
2015,04,20,12,04,16.10
2015,04,20,12,05,16.00
2015,04,20,12,06,16.00
2015,04,20,12,07,15.90
2015,04,20,12,08,15.90
2015,04,20,12,09,16.00
2015,04,20,12,10,16.00
2015,04,20,12,11,16.10
2015,04,20,12,12,16.10
2015,04,20,12,13,16.10
2015,04,20,12,14,16.10
2015,04,20,12,15,16.10
2015,04,20,12,16,16.10
2015,04,20,12,17,16.10
2015,04,20,12,18,16.20
2015,04,20,12,19,16.20
2015,04,20,12,20,16.30
2015,04,20,12,21,16.30
2015,04,20,12,22,16.30
2015,04,20,12,23,16.30
2015,04,20,12,24,16.30
2015,04,20,12,25,16.40
2015,04,20,12,26,16.50
2015,04,20,12,27,16.60
2015,04,20,12,28,16.60
2015,04,20,12,29,16.70
2015,04,20,12,30,16.70
2015,04,20,12,31,16.70
2015,04,20,12,32,16.70
2015,04,20,12,33,16.60
2015,04,20,12,34,16.50
2015,04,20,12,35,16.30
2015,04,20,12,36,16.20
2015,04,20,12,37,16.00
2015,04,20,12,38,15.90
2015,04,20,12,39,15.80
2015,04,20,12,40,15.70
2015,04,20,12,41,15.60
2015,04,20,12,42,15.60
2015,04,20,12,43,15.50
2015,04,20,12,44,15.40
2015,04,20,12,45,15.30
2015,04,20,12,46,15.20
2015,04,20,12,47,15.10
2015,04,20,12,48,15.00
2015,04,20,12,49,14.90
2015,04,20,12,50,14.90
2015,04,20,12,51,14.90
2015,04,20,12,52,15.00
2015,04,20,12,53,15.00
2015,04,20,12,54,15.10
2015,04,20,12,55,15.10
2015,04,20,12,56,15.10
2015,04,20,12,57,15.10
2015,04,20,12,58,15.20
2015,04,20,12,59,15.20
2015,04,20,13,00,15.30
2015,04,20,13,01,15.30
2015,04,20,13,02,15.40
2015,04,20,13,03,15.40
2015,04,20,13,04,15.40
2015,04,20,13,05,15.50
2015,04,20,13,06,15.50
2015,04,20,13,07,15.60
2015,04,20,13,08,15.60
2015,04,20,13,09,15.60
2015,04,20,13,10,15.70
2015,04,20,13,11,15.70
2015,04,20,13,12,15.70
2015,04,20,13,13,15.70
2015,04,20,13,14,15.70
2015,04,20,13,15,15.70
2015,04,20,13,16,15.80
2015,04,20,13,17,15.80
2015,04,20,13,18,15.90
2015,04,20,13,19,16.00
2015,04,20,13,20,16.20
2015,04,20,13,21,16.30
2015,04,20,13,22,16.40
2015,04,20,13,23,16.50
2015,04,20,13,24,16.60
2015,04,20,13,25,16.70
2015,04,20,13,26,16.80
2015,04,20,13,27,16.90
2015,04,20,13,28,17.00
2015,04,20,13,29,17.00
2015,04,20,13,30,17.10
2015,04,20,13,31,17.10
2015,04,20,13,32,17.10
2015,04,20,13,33,17.10
2015,04,20,13,34,17.10
2015,04,20,13,35,17.10
2015,04,20,13,36,17.10
2015,04,20,13,37,17.00
2015,04,20,13,38,17.00
2015,04,20,13,39,17.00
2015,04,20,13,40,16.90
2015,04,20,13,41,16.90
2015,04,20,13,42,16.90
2015,04,20,13,43,16.90
2015,04,20,13,44,17.00
2015,04,20,13,45,17.10
2015,04,20,13,46,17.10
2015,04,20,13,47,17.10
2015,04,20,13,48,17.20
2015,04,20,13,49,17.20
2015,04,20,13,50,17.10
2015,04,20,13,51,17.10
2015,04,20,13,52,17.10
2015,04,20,13,53,17.10
2015,04,20,13,54,17.00
2015,04,20,13,55,17.10
2015,04,20,13,56,17.10
2015,04,20,13,57,17.10
2015,04,20,13,58,17.20
2015,04,20,13,59,17.20
2015,04,20,14,00,17.20
2015,04,20,14,01,17.30
2015,04,20,14,02,17.30
2015,04,20,14,03,17.30
2015,04,20,14,04,17.30
2015,04,20,14,05,17.30
2015,04,20,14,06,17.30
2015,04,20,14,07,17.40
2015,04,20,14,08,17.40
2015,04,20,14,09,17.50
2015,04,20,14,10,17.60
2015,04,20,14,11,17.60
2015,04,20,14,12,17.70
2015,04,20,14,13,17.70
2015,04,20,14,14,17.80
2015,04,20,14,15,17.80
2015,04,20,14,16,17.90
2015,04,20,14,17,18.00
2015,04,20,14,18,18.10
2015,04,20,14,19,18.10
2015,04,20,14,20,18.20
2015,04,20,14,21,18.20
2015,04,20,14,22,18.20
2015,04,20,14,23,18.20
2015,04,20,14,24,18.20
2015,04,20,14,25,18.20
2015,04,20,14,26,18.20
2015,04,20,14,27,18.20
2015,04,20,14,28,18.20
2015,04,20,14,29,18.20
2015,04,20,14,30,18.10
2015,04,20,14,31,18.10
2015,04,20,14,32,18.10
2015,04,20,14,33,18.10
2015,04,20,14,34,18.10
2015,04,20,14,35,18.10
2015,04,20,14,36,18.10
2015,04,20,14,37,18.10
2015,04,20,14,38,18.10
2015,04,20,14,39,18.10
2015,04,20,14,40,18.10
2015,04,20,14,41,18.00
2015,04,20,14,42,17.90
2015,04,20,14,43,17.90
2015,04,20,14,44,17.90
2015,04,20,14,45,17.90
2015,04,20,14,46,17.90
2015,04,20,14,47,17.90
2015,04,20,14,48,18.00
2015,04,20,14,49,18.10
2015,04,20,14,50,18.20
2015,04,20,14,51,18.20
2015,04,20,14,52,18.30
2015,04,20,14,53,18.30
2015,04,20,14,54,18.40
2015,04,20,14,55,18.40
2015,04,20,14,56,18.50
2015,04,20,14,57,18.50
2015,04,20,14,58,18.50
2015,04,20,14,59,18.40
2015,04,20,15,00,18.30
2015,04,20,15,01,18.30
2015,04,20,15,02,18.30
2015,04,20,15,03,18.40
2015,04,20,15,04,18.40
2015,04,20,15,05,18.50
2015,04,20,15,06,18.50
2015,04,20,15,07,18.60
2015,04,20,15,08,18.70
2015,04,20,15,09,18.80
2015,04,20,15,10,18.80
2015,04,20,15,11,18.80
2015,04,20,15,12,18.80
2015,04,20,15,13,18.90
2015,04,20,15,14,18.90
2015,04,20,15,15,18.90
2015,04,20,15,16,19.00
2015,04,20,15,17,19.00
2015,04,20,15,18,19.10
2015,04,20,15,19,19.10
2015,04,20,15,20,19.10
2015,04,20,15,21,19.00
2015,04,20,15,22,18.90
2015,04,20,15,23,18.80
2015,04,20,15,24,18.80
2015,04,20,15,25,18.70
2015,04,20,15,26,18.80
2015,04,20,15,27,18.80
2015,04,20,15,28,18.80
2015,04,20,15,29,18.70
2015,04,20,15,30,18.70
2015,04,20,15,31,18.70
2015,04,20,15,32,18.80
2015,04,20,15,33,18.80
2015,04,20,15,34,18.80
2015,04,20,15,35,18.90
2015,04,20,15,36,19.00
2015,04,20,15,37,19.00
2015,04,20,15,38,19.00
2015,04,20,15,39,19.00
2015,04,20,15,40,19.00
2015,04,20,15,41,19.00
2015,04,20,15,42,19.00
2015,04,20,15,43,18.90
2015,04,20,15,44,18.90
2015,04,20,15,45,18.90
2015,04,20,15,46,18.90
2015,04,20,15,47,18.90
2015,04,20,15,48,18.80
2015,04,20,15,49,18.80
2015,04,20,15,50,18.80
2015,04,20,15,51,18.80
2015,04,20,15,52,18.80
2015,04,20,15,53,18.90
2015,04,20,15,54,18.90
2015,04,20,15,55,19.00
2015,04,20,15,56,19.10
2015,04,20,15,57,19.20
2015,04,20,15,58,19.20
2015,04,20,15,59,19.30
2015,04,20,16,00,19.30
2015,04,20,16,01,19.40
2015,04,20,16,02,19.40
2015,04,20,16,03,19.40
2015,04,20,16,04,19.50
2015,04,20,16,05,19.50
2015,04,20,16,06,19.60
2015,04,20,16,07,19.60
2015,04,20,16,08,19.60
2015,04,20,16,09,19.60
2015,04,20,16,10,19.60
2015,04,20,16,11,19.60
2015,04,20,16,12,19.60
2015,04,20,16,13,19.60
2015,04,20,16,14,19.60
2015,04,20,16,15,19.60
2015,04,20,16,16,19.60
2015,04,20,16,17,19.60
2015,04,20,16,18,19.60
2015,04,20,16,19,19.50
2015,04,20,16,20,19.40
2015,04,20,16,21,19.40
2015,04,20,16,22,19.40
2015,04,20,16,23,19.40
2015,04,20,16,24,19.40
2015,04,20,16,25,19.40
2015,04,20,16,26,19.40
2015,04,20,16,27,19.50
2015,04,20,16,28,19.60
2015,04,20,16,29,19.60
2015,04,20,16,30,19.60
2015,04,20,16,31,19.70
2015,04,20,16,32,19.70
2015,04,20,16,33,19.70
2015,04,20,16,34,19.70
2015,04,20,16,35,19.80
2015,04,20,16,36,19.80
2015,04,20,16,37,19.80
2015,04,20,16,38,19.90
2015,04,20,16,39,19.90
2015,04,20,16,40,19.90
2015,04,20,16,41,20.00
2015,04,20,16,42,20.10
2015,04,20,16,43,20.10
2015,04,20,16,44,20.20
2015,04,20,16,45,20.20
2015,04,20,16,46,20.20
2015,04,20,16,47,20.30
2015,04,20,16,48,20.30
2015,04,20,16,49,20.30
2015,04,20,16,50,20.40
2015,04,20,16,51,20.40
2015,04,20,16,52,20.50
2015,04,20,16,53,20.50
2015,04,20,16,54,20.60
2015,04,20,16,55,20.50
2015,04,20,16,56,20.50
2015,04,20,16,57,20.40
2015,04,20,16,58,20.40
2015,04,20,16,59,20.30
2015,04,20,17,00,20.20
2015,04,20,17,01,20.10
2015,04,20,17,02,20.10
2015,04,20,17,03,20.00
2015,04,20,17,04,20.00
2015,04,20,17,05,19.90
2015,04,20,17,06,19.90
2015,04,20,17,07,19.90
2015,04,20,17,08,19.90
2015,04,20,17,09,19.90
2015,04,20,17,10,19.90
2015,04,20,17,11,20.00
2015,04,20,17,12,20.10
2015,04,20,17,13,20.10
2015,04,20,17,14,20.10
2015,04,20,17,15,20.20
2015,04,20,17,16,20.20
2015,04,20,17,17,20.20
2015,04,20,17,18,20.20
2015,04,20,17,19,20.20
2015,04,20,17,20,20.20
2015,04,20,17,21,20.20
2015,04,20,17,22,20.20
2015,04,20,17,23,20.20
2015,04,20,17,24,20.30
2015,04,20,17,25,20.30
2015,04,20,17,26,20.40
2015,04,20,17,27,20.40
2015,04,20,17,28,20.50
2015,04,20,17,29,20.50
2015,04,20,17,30,20.60